Wilson Clyde — 8PRV — position and weather

sailwx.info

Track history (hours):
 
Tides and Currents Weather Stations Pressure Air Temp Water Temp Dewpoint Dewpoint Depression Visibility Wind Speed Wind Dir Waves Ship Positions

Wilson Clyde

Last reported at 2014-Oct-24 21:32 UTC. Time now 2014-Oct-26 00:14 UTC.
Position N 57°21' E 008°00'.

Length 100 m; draft 5.1 m.

Type: Ship. MMSI: 314187000.

Date/timePositionNaut miles runAvg speedWind from/ knotsBaromVisibWave heightAir tempDewpointWater temp
2014-Oct-24 21:32N 57°21' E 008°00'9 9.0
2014-Oct-24 20:32N 57°25' E 008°14'68 9.2
2014-Oct-24 13:12N 57°44' E 010°15'6 9.6
2014-Oct-24 12:34N 57°46' E 010°26'9 9.2
2014-Oct-24 11:33N 57°47' E 010°44'10 9.6
2014-Oct-24 10:33N 57°42' E 010°59'1010.5
2014-Oct-24 09:33N 57°34' E 011°10'1010.4
2014-Oct-24 08:33N 57°23' E 011°08'3 2.7
2014-Oct-24 07:33N 57°21' E 011°06'0 0.0
2014-Oct-24 06:24N 57°21' E 011°06'0 0.0
2014-Oct-24 05:33N 57°21' E 011°06'0 0.0
2014-Oct-24 04:33N 57°21' E 011°06'0 0.0
2014-Oct-24 03:30N 57°21' E 011°06'0 0.0
2014-Oct-24 02:30N 57°21' E 011°06'0 0.0
2014-Oct-24 01:24N 57°21' E 011°06'0 0.0
2014-Oct-24 00:30N 57°21' E 011°06'0 0.0
2014-Oct-23 23:33N 57°21' E 011°06'0 0.0
2014-Oct-23 22:33N 57°21' E 011°06'8 7.8
2014-Oct-23 21:29N 57°23' E 010°51'  
2014-Oct-20 17:16N 57°33' E 010°44'810.7
2014-Oct-20 16:33N 57°41' E 010°45'9 9.3
2014-Oct-20 15:33N 57°47' E 010°33'13611.3
2014-Oct-20 03:31N 58°06' E 006°19'8 8.7
2014-Oct-20 02:34N 58°12' E 006°08'9 8.7
2014-Oct-20 01:33N 58°18' E 005°57'10 9.7
2014-Oct-20 00:33N 58°25' E 005°43'9 8.7
2014-Oct-19 23:33N 58°31' E 005°32'13 8.9
2014-Oct-19 22:06N 58°42' E 005°19'5 8.4
2014-Oct-19 21:34N 58°46' E 005°14'8 8.1
2014-Oct-19 20:33N 58°53' E 005°06'8 7.6
2014-Oct-19 19:29N 58°60' E 004°58'7 7.3
2014-Oct-19 18:33N 59°06' E 004°51'  
2014-Oct-17 12:17N 66°17' E 012°13'911.9
2014-Oct-17 11:33N 66°15' E 012°35'1111.0
2014-Oct-17 10:32N 66°22' E 012°57'  
2014-Oct-14 22:33N 67°12' E 014°05'1312.9
2014-Oct-14 21:33N 67°22' E 014°25'  
Track history (hours):
 
Tides and Currents Weather Stations Pressure Air Temp Water Temp Dewpoint Dewpoint Depression Visibility Wind Speed Wind Dir Waves Ship Positions

Wilson Clyde

Last reported at 2014-Oct-24 21:32 UTC. Time now 2014-Oct-26 00:14 UTC.
Position N 57°21' E 008°00'.

Length 100 m; draft 5.1 m.

Type: Ship. MMSI: 314187000.

Date/timePositionNaut miles runAvg speedWind from/ knotsBaromVisibWave heightAir tempDewpointWater temp
2014-Oct-24 21:32N 57°21' E 008°00'9 9.0
2014-Oct-24 20:32N 57°25' E 008°14'68 9.2
2014-Oct-24 13:12N 57°44' E 010°15'6 9.6
2014-Oct-24 12:34N 57°46' E 010°26'9 9.2
2014-Oct-24 11:33N 57°47' E 010°44'10 9.6
2014-Oct-24 10:33N 57°42' E 010°59'1010.5
2014-Oct-24 09:33N 57°34' E 011°10'1010.4
2014-Oct-24 08:33N 57°23' E 011°08'3 2.7
2014-Oct-24 07:33N 57°21' E 011°06'0 0.0
2014-Oct-24 06:24N 57°21' E 011°06'0 0.0
2014-Oct-24 05:33N 57°21' E 011°06'0 0.0
2014-Oct-24 04:33N 57°21' E 011°06'0 0.0
2014-Oct-24 03:30N 57°21' E 011°06'0 0.0
2014-Oct-24 02:30N 57°21' E 011°06'0 0.0
2014-Oct-24 01:24N 57°21' E 011°06'0 0.0
2014-Oct-24 00:30N 57°21' E 011°06'0 0.0
2014-Oct-23 23:33N 57°21' E 011°06'0 0.0
2014-Oct-23 22:33N 57°21' E 011°06'8 7.8
2014-Oct-23 21:29N 57°23' E 010°51'  
2014-Oct-20 17:16N 57°33' E 010°44'810.7
2014-Oct-20 16:33N 57°41' E 010°45'9 9.3
2014-Oct-20 15:33N 57°47' E 010°33'13611.3
2014-Oct-20 03:31N 58°06' E 006°19'8 8.7
2014-Oct-20 02:34N 58°12' E 006°08'9 8.7
2014-Oct-20 01:33N 58°18' E 005°57'10 9.7
2014-Oct-20 00:33N 58°25' E 005°43'9 8.7
2014-Oct-19 23:33N 58°31' E 005°32'13 8.9
2014-Oct-19 22:06N 58°42' E 005°19'5 8.4
2014-Oct-19 21:34N 58°46' E 005°14'8 8.1
2014-Oct-19 20:33N 58°53' E 005°06'8 7.6
2014-Oct-19 19:29N 58°60' E 004°58'7 7.3
2014-Oct-19 18:33N 59°06' E 004°51'  
2014-Oct-17 12:17N 66°17' E 012°13'911.9
2014-Oct-17 11:33N 66°15' E 012°35'1111.0
2014-Oct-17 10:32N 66°22' E 012°57'  
2014-Oct-14 22:33N 67°12' E 014°05'1312.9
2014-Oct-14 21:33N 67°22' E 014°25'  

Dump ship's entire track history